F4MNZ-13 Weather Reports


time (UTC)temp
F
wind
direction
speed
knots
gust
knots
rain 1hr
in
rain 24hr
in
rain mn
in
humidity
%
barometer
mb
20260506225500 47 192 0.0 2.6 0.00 0.43 0.00 93 1019.8
20260506225001 47 220 0.9 1.7 0.00 0.43 0.00 93 1019.8
20260506224502 47 221 0.9 1.7 0.00 0.43 0.00 92 1019.8
20260506224004 47 226 0.9 2.6 0.00 0.43 0.00 92 1019.7
20260506223501 47 258 0.0 5.2 0.00 0.43 0.00 92 1019.8
20260506223001 47 242 0.9 5.2 0.00 0.43 0.00 93 1019.8
20260506222501 47 235 1.7 3.5 0.00 0.43 0.00 94 1019.8
20260506222001 46 229 1.7 3.5 0.00 0.43 0.00 95 1019.8
20260506221502 46 206 1.7 1.7 0.00 0.43 0.00 95 1019.8
20260506221001 46 213 0.0 0.9 0.00 0.43 0.00 95 1019.9
20260506220500 46 213 0.0 0.9 0.00 0.43 0.00 95 1019.8
20260506220000 46 213 0.9 0.9 0.00 0.43 0.43 95 1019.8
20260506215500 46 213 0.9 2.6 0.00 0.43 0.43 95 1019.8
20260506214959 46 213 1.7 2.6 0.00 0.43 0.43 94 1019.8
20260506213959 46 208 0.0 1.7 0.00 0.43 0.43 94 1019.8
20260506213459 46 207 0.0 2.6 0.00 0.43 0.43 94 1019.8
20260506213000 46 213 0.9 2.6 0.00 0.43 0.43 94 1019.8
20260506212500 46 213 1.7 1.7 0.00 0.43 0.43 94 1019.9
20260506212000 46 211 0.9 1.7 0.00 0.43 0.43 94 1019.9
20260506211500 47 211 0.0 1.7 0.00 0.43 0.43 94 1019.9
20260506210500 47 211 0.0 1.7 0.00 0.43 0.43 94 1019.8
20260506205959 47 211 0.0 1.7 0.00 0.43 0.43 94 1019.9
20260506203959 47 214 0.9 0.9 0.00 0.43 0.43 94 1019.8
20260506203501 47 214 0.0 1.7 0.00 0.43 0.43 94 1019.7
20260506203001 47 214 0.0 1.7 0.00 0.43 0.43 94 1019.7
20260506202500 47 214 0.0 1.7 0.00 0.43 0.43 94 1019.6
20260506202002 47 214 0.0 0.9 0.00 0.43 0.43 94 1019.6
20260506201501 47 214 0.0 1.7 0.00 0.43 0.43 94 1019.6
20260506200959 47 214 0.0 1.7 0.01 0.43 0.43 94 1019.5
20260506200459 47 214 0.0 1.7 0.01 0.43 0.43 94 1019.4
20260506200001 47 214 0.0 2.6 0.01 0.43 0.43 94 1019.4
20260506195501 47 227 1.7 2.6 0.01 0.43 0.43 94 1019.3
20260506194501 48 217 0.9 1.7 0.01 0.43 0.43 93 1019.1
20260506193502 48 220 0.0 1.7 0.01 0.43 0.43 93 1018.9
20260506193000 48 220 0.0 1.7 0.01 0.43 0.43 93 1018.8
20260506192501 48 220 0.0 0.0 0.01 0.43 0.43 93 1018.8
20260506192001 48 220 0.0 0.0 0.01 0.43 0.43 93 1018.8
20260506191501 48 220 0.0 0.9 0.01 0.43 0.43 93 1018.8
20260506190503 48 220 0.9 1.7 0.00 0.43 0.43 93 1018.7
20260506190002 48 209 0.9 2.6 0.00 0.43 0.43 92 1018.7
20260506185459 48 219 2.6 3.5 0.00 0.43 0.43 92 1018.6
20260506184959 48 205 0.9 3.5 0.00 0.43 0.43 92 1018.6
20260506184459 48 195 2.6 3.5 0.00 0.43 0.43 92 1018.6
20260506184000 48 217 1.7 4.3 0.01 0.43 0.43 92 1018.6
20260506183501 48 202 1.7 6.1 0.01 0.43 0.43 92 1018.6
20260506182959 48 175 2.6 5.2 0.02 0.43 0.43 92 1018.4
20260506182459 48 203 1.7 4.3 0.02 0.43 0.43 92 1018.4
20260506182000 48 169 4.3 4.3 0.03 0.43 0.43 92 1018.4
20260506181459 48 194 1.7 4.3 0.05 0.43 0.43 92 1018.3
20260506180959 48 192 1.7 4.3 0.06 0.43 0.43 91 1018.2
20260506180500 49 211 1.7 2.6 0.07 0.43 0.43 92 1018.1
20260506175959 49 192 1.7 3.5 0.09 0.43 0.43 91 1018.1
20260506175459 49 207 0.9 3.5 0.09 0.43 0.43 91 1018.0
20260506174959 49 182 0.9 2.6 0.11 0.43 0.43 92 1018.0
20260506174000 49 244 0.9 4.3 0.14 0.42 0.42 91 1018.0
20260506173459 49 169 0.9 4.3 0.17 0.42 0.42 91 1017.9
20260506171959 49 229 0.9 3.5 0.20 0.39 0.39 91 1017.8
20260506171500 49 186 2.6 3.5 0.20 0.38 0.38 91 1017.8
20260506170959 49 175 0.9 2.6 0.19 0.36 0.36 90 1017.7
20260506165959 49 194 0.9 4.3 0.18 0.34 0.34 90 1017.8
20260506165458 49 184 0.9 4.3 0.18 0.33 0.33 90 1017.7
20260506165001 49 195 2.6 4.3 0.17 0.31 0.31 90 1017.7
20260506164002 49 136 3.5 6.1 0.17 0.28 0.28 90 1017.7
20260506163500 49 176 1.7 6.1 0.17 0.24 0.24 89 1017.7
20260506163006 50 242 0.9 1.7 0.15 0.22 0.22 89 1017.6
20260506162500 50 190 0.9 2.6 0.14 0.20 0.20 89 1017.5
20260506161500 50 202 0.9 4.3 0.13 0.18 0.18 88 1017.5
20260506160959 50 213 0.9 4.3 0.13 0.17 0.17 89 1017.4
20260506155500 51 250 0.9 1.7 0.11 0.17 0.15 86 1017.4
20260506155000 51 169 0.0 4.3 0.12 0.17 0.15 88 1017.3
20260506154001 51 202 1.7 4.3 0.07 0.13 0.10 86 1017.2
20260506153459 51 231 2.6 2.6 0.06 0.10 0.08 88 1017.1
20260506152959 51 261 1.7 2.6 0.05 0.09 0.07 88 1017.1
20260506152500 51 271 0.9 3.5 0.04 0.08 0.06 88 1017.2
20260506152001 51 163 1.7 3.5 0.05 0.08 0.06 87 1017.0
20260506150959 51 167 0.9 1.7 0.04 0.06 0.04 86 1017.0
20260506150500 51 183 0.9 1.7 0.04 0.06 0.04 86 1016.9
20260506144501 52 234 0.9 2.6 0.03 0.13 0.03 84 1017.0
20260506144000 52 217 0.9 6.1 0.03 0.13 0.03 80 1016.9
20260506143000 52 250 7.0 7.8 0.02 0.13 0.02 81 1016.8
20260506142500 53 260 2.6 7.0 0.02 0.12 0.02 79 1016.7
20260506142000 53 263 0.9 7.0 0.01 0.11 0.01 78 1016.8
20260506141000 54 238 0.9 7.0 0.00 0.10 0.00 70 1016.7
20260506140500 55 343 1.7 7.8 0.00 0.10 0.00 70 1016.7
20260506140001 55 348 1.7 9.6 0.00 0.10 0.00 69 1016.6
20260506135500 55 9 3.5 10.4 0.00 0.10 0.00 67 1016.6
20260506134501 56 24 8.7 11.3 0.00 0.10 0.00 64 1016.4
20260506134000 57 321 2.6 8.7 0.00 0.10 0.00 64 1016.4
20260506133500 58 33 3.5 8.7 0.00 0.10 0.00 63 1016.4
20260506133001 57 44 5.2 8.7 0.00 0.10 0.00 63 1016.4
20260506131959 57 41 8.7 10.4 0.00 0.10 0.00 63 1016.5
20260506131459 57 46 5.2 9.6 0.00 0.10 0.00 63 1016.4
20260506130959 57 27 0.0 9.6 0.00 0.10 0.00 63 1016.4
20260506130500 57 51 0.0 10.4 0.00 0.10 0.00 62 1016.4
20260506130002 58 42 4.3 10.4 0.00 0.10 0.00 63 1016.5
20260506125500 58 13 6.1 10.4 0.00 0.10 0.00 65 1016.5
20260506125000 58 23 2.6 9.6 0.00 0.10 0.00 62 1016.4
20260506124500 57 31 5.2 9.6 0.00 0.10 0.00 63 1016.5
20260506124003 58 45 8.7 10.4 0.00 0.10 0.00 60 1016.4
20260506123501 59 37 5.2 12.2 0.00 0.10 0.00 63 1016.4
20260506123001 59 69 7.8 12.2 0.00 0.10 0.00 68 1016.5
20260506122000 58 232 1.7 6.1 0.00 0.10 0.00 61 1016.4
20260506121502 59 205 2.6 9.6 0.00 0.10 0.00 62 1016.4
20260506120959 59 219 1.7 8.7 0.00 0.10 0.00 62 1016.3
20260506120500 59 256 2.6 6.1 0.00 0.10 0.00 61 1016.4
20260506120000 59 59 1.7 12.2 0.00 0.10 0.00 62 1016.3
20260506115000 59 312 4.3 8.7 0.00 0.10 0.00 60 1016.5
20260506114501 58 218 3.5 8.7 0.00 0.10 0.00 60 1016.4
20260506114000 58 274 5.2 8.7 0.00 0.10 0.00 65 1016.5
20260506113502 57 297 2.6 6.1 0.00 0.10 0.00 68 1016.7
20260506112501 56 217 5.2 7.8 0.00 0.10 0.00 65 1016.8
20260506111959 57 219 6.1 7.8 0.00 0.10 0.00 63 1016.8
20260506111500 57 189 1.7 9.6 0.00 0.10 0.00 65 1016.7
20260506111003 57 204 2.6 9.6 0.00 0.10 0.00 65 1016.9
20260506105959 57 84 1.7 7.8 0.00 0.10 0.00 64 1016.9
20260506104959 57 228 5.2 7.8 0.00 0.10 0.00 61 1016.9
20260506104459 56 92 0.9 7.8 0.00 0.10 0.00 62 1017.1
20260506103959 56 239 5.2 7.8 0.00 0.10 0.00 63 1017.0
20260506102959 56 329 2.6 9.6 0.00 0.10 0.00 64 1017.2
20260506102459 55 303 0.9 9.6 0.00 0.10 0.00 64 1017.2
20260506102000 55 53 8.7 9.6 0.00 0.10 0.00 68 1017.1
20260506101459 55 40 6.1 9.6 0.00 0.10 0.00 70 1017.3
20260506100958 54 28 2.6 9.6 0.00 0.10 0.00 64 1017.2
20260506100459 54 333 1.7 9.6 0.00 0.10 0.00 63 1017.3
20260506100001 55 338 5.2 7.8 0.00 0.10 0.00 64 1017.3
20260506095458 55 63 3.5 7.0 0.00 0.10 0.00 72 1017.2
20260506095000 54 68 1.7 6.1 0.00 0.10 0.00 65 1017.2
20260506094501 54 242 2.6 5.2 0.00 0.10 0.00 62 1017.2
20260506093959 54 242 3.5 6.1 0.00 0.10 0.00 62 1017.1
20260506093500 54 263 2.6 7.0 0.00 0.10 0.00 60 1017.1
20260506092501 56 56 3.5 3.5 0.00 0.10 0.00 63 1017.1
20260506092002 55 127 1.7 7.0 0.00 0.10 0.00 70 1017.1
20260506091500 55 313 1.7 7.0 0.00 0.10 0.00 66 1017.1
20260506090000 54 65 1.7 5.2 0.00 0.10 0.00 67 1016.9
20260506085500 54 61 1.7 4.3 0.00 0.10 0.00 72 1016.9
20260506085001 53 57 3.5 4.3 0.00 0.10 0.00 68 1016.9
20260506083459 53 55 0.9 2.6 0.00 0.10 0.00 75 1016.9
20260506083001 52 40 0.9 2.6 0.00 0.10 0.00 73 1017.0
20260506082501 52 71 1.7 1.7 0.00 0.10 0.00 77 1017.1
20260506081958 51 55 0.0 1.7 0.00 0.10 0.00 74 1017.1
20260506081501 51 91 0.9 2.6 0.00 0.10 0.00 76 1017.1
20260506081002 51 120 1.7 3.5 0.00 0.10 0.00 73 1017.1
20260506080459 51 68 1.7 3.5 0.00 0.10 0.00 76 1017.2
20260506073500 46 177 0.9 1.7 0.00 0.10 0.00 90 1017.3
20260506071959 46 44 0.9 1.7 0.00 0.10 0.00 90 1017.3
20260506070459 47 44 0.0 1.7 0.00 0.10 0.00 89 1017.2
20260506062458 46 45 0.9 2.6 0.00 0.10 0.00 94 1017.2
20260506062004 46 45 1.7 1.7 0.00 0.10 0.00 94 1017.2
20260506061001 45 232 0.0 1.7 0.00 0.10 0.00 95 1017.1
20260506060502 45 232 0.0 1.7 0.00 0.10 0.00 95 1017.1
20260506050958 0 0.0 0.0 0.00 0.10 0.00 1016.8
20260506050458 0 0.0 0.0 0.00 0.10 0.00 1016.7
20260506044958 0 0.0 0.0 0.00 0.10 0.00 1016.7
20260506044459 0 0.0 0.0 0.00 0.10 0.00 1016.6
20260506043958 0 0.0 0.0 0.00 0.10 0.00 1016.6
20260506043458 0 0.0 0.0 0.00 0.10 0.00 1016.6
20260506042958 0 0.0 0.0 0.00 0.10 0.00 1016.5
20260506042458 0 0.0 0.0 0.00 0.10 0.00 1016.5
20260506041958 0 0.0 0.0 0.00 0.10 0.00 1016.5
20260506041458 0 0.0 0.0 0.00 0.10 0.00 1016.5
20260506040958 0 0.0 0.0 0.00 0.10 0.00 1016.4
20260506040458 0 0.0 0.0 0.00 0.10 0.00 1016.4
20260506035959 0 0.0 0.0 0.00 0.10 0.00 1016.5
20260506035458 0 0.0 0.0 0.00 0.10 0.00 1016.4
20260506033957 0 0.0 0.0 0.00 0.10 0.00 1016.4
20260506032958 0 0.0 0.0 0.00 0.10 0.00 1016.6
20260506031958 0 0.0 0.0 0.00 0.10 0.00 1016.6
20260506031458 0 0.0 0.0 0.00 0.10 0.00 1016.6
20260506030958 0 0.0 0.0 0.00 0.10 0.00 1016.5
20260506030459 0 0.0 0.0 0.00 0.10 0.00 1016.6
20260506025959 0 0.0 0.0 0.00 0.10 0.00 1016.6
20260506025458 0 0.0 0.0 0.00 0.10 0.00 1016.4
20260506024958 0 0.0 0.0 0.00 0.10 0.00 1016.5
20260506024458 0 0.0 0.0 0.00 0.10 0.00 1016.5
20260506023958 0 0.0 0.0 0.00 0.10 0.00 1016.6
20260506023458 0 0.0 0.0 0.00 0.10 0.00 1016.6
20260506022958 0 0.0 0.0 0.00 0.10 0.00 1016.6
20260506022458 0 0.0 0.0 0.00 0.10 0.00 1016.6
20260506021958 0 0.0 0.0 0.00 0.10 0.00 1016.5
20260506021457 0 0.0 0.0 0.00 0.10 0.00 1016.4
20260506020958 0 0.0 0.0 0.00 0.10 0.00 1016.5
20260506020457 0 0.0 0.0 0.00 0.10 0.00 1016.4
20260506015958 0 0.0 0.0 0.00 0.10 0.00 1016.4
20260506014456 0 0.0 0.0 0.00 0.10 0.00 1016.6
20260506013957 0 0.0 0.0 0.00 0.10 0.00 1016.6
20260506013457 0 0.0 0.0 0.00 0.10 0.00 1016.6
20260506012958 0 0.0 0.0 0.00 0.10 0.00 1016.6
20260506012458 0 0.0 0.0 0.00 0.10 0.00 1016.6
20260506011459 0 0.0 0.0 0.00 0.10 0.00 1016.7
20260506010457 0 0.0 0.0 0.00 0.10 0.00 1016.9
20260506010000 0 0.0 0.0 0.00 0.10 0.00 1016.9
20260506005459 0 0.0 0.0 0.00 0.10 0.00 1016.9
20260506004958 0 0.0 0.0 0.00 0.10 0.00 1016.9
20260506004458 0 0.0 0.0 0.00 0.10 0.00 1016.9
20260506004000 0 0.0 0.0 0.00 0.10 0.00 1016.9
20260506003457 0 0.0 0.0 0.00 0.10 0.00 1016.8
20260506002959 0 0.0 0.0 0.00 0.10 0.00 1016.9
20260506002459 0 0.0 0.0 0.00 0.10 0.00 1016.9
20260506001958 0 0.0 0.0 0.00 0.10 0.00 1017.0
20260506001459 0 0.0 0.0 0.00 0.10 0.00 1017.0
20260506000958 0 0.0 0.0 0.00 0.10 0.00 1017.1
20260506000458 0 0.0 0.0 0.00 0.10 0.00 1017.3
20260505235458 0 0.0 0.0 0.00 0.10 0.00 1017.3
20260505234957 0 0.0 0.0 0.00 0.10 0.00 1017.4
20260505234458 0 0.0 0.0 0.00 0.10 0.00 1017.4
20260505233958 0 0.0 0.0 0.00 0.10 0.00 1017.5
20260505233457 0 0.0 0.0 0.00 0.10 0.00 1017.6
20260505232957 0 0.0 0.0 0.00 0.10 0.00 1017.6
20260505232458 0 0.0 0.0 0.00 0.10 0.00 1017.7
20260505231957 0 0.0 0.0 0.00 0.10 0.00 1017.6
20260505231457 0 0.0 0.0 0.00 0.10 0.00 1017.6
20260505230957 0 0.0 0.0 0.00 0.10 0.00 1017.5
20260505230457 0 0.0 0.0 0.00 0.10 0.00 1017.7
20260505230000 0 0.0 0.0 0.00 0.10 0.00 1017.7